This is the latest recevied weather packets stored in our database for station/object KI8L. If no packets are shown the sender has not sent any weather packets the latest 10 day(s).
| Time | Temp. | Humidity | Pressure | Rain* | Wind** | Luminosity | Snow |
|---|---|---|---|---|---|---|---|
| 1777889384 | 8.89° C | 77% | 1011.1 hPa | 0 mm | - | 0 W/m² | - |
| 1777889082 | 8.89° C | 76% | 1010.9 hPa | 0 mm | - | 0 W/m² | - |
| 1777888779 | 8.89° C | 77% | 1011 hPa | 0 mm | - | 0 W/m² | - |
| 1777888476 | 8.89° C | 75% | 1011.1 hPa | 0 mm | - | 0 W/m² | - |
| 1777888172 | 8.89° C | 75% | 1011 hPa | 0 mm | - | 0 W/m² | - |
| 1777887869 | 8.89° C | 76% | 1011.3 hPa | 0 mm | - | 0 W/m² | - |
| 1777887566 | 8.89° C | 78% | 1011.4 hPa | 0 mm | - | 0 W/m² | - |
| 1777887267 | 8.89° C | 77% | 1011.4 hPa | 0 mm | - | 0 W/m² | - |
| 1777886963 | 8.33° C | 78% | 1011.3 hPa | 0 mm | - | 0 W/m² | - |
| 1777886659 | 8.89° C | 76% | 1011.2 hPa | 0 mm | - | 0 W/m² | - |
| 1777886356 | 9.44° C | 72% | 1011.4 hPa | 0 mm | - | 0 W/m² | - |
| 1777886054 | 9.44° C | 73% | 1011.5 hPa | 0 mm | - | 0 W/m² | - |
| 1777885752 | 10° C | 72% | 1011.5 hPa | 0 mm | - | 0 W/m² | - |
| 1777885450 | 10° C | 73% | 1011.5 hPa | 0 mm | - | 0 W/m² | - |
| 1777885149 | 10° C | 73% | 1011.7 hPa | 0 mm | - | 0 W/m² | - |
| 1777884845 | 9.44° C | 75% | 1011.7 hPa | 0 mm | - | 0 W/m² | - |
| 1777884541 | 8.89° C | 75% | 1011.6 hPa | 0 mm | - | 0 W/m² | - |
| 1777884239 | 8.89° C | 74% | 1011.7 hPa | 0 mm | - | 0 W/m² | - |
| 1777883934 | 8.89° C | 76% | 1011.9 hPa | 0 mm | - | 0 W/m² | - |
| 1777883632 | 8.89° C | 74% | 1012.1 hPa | 0 mm | - | 0 W/m² | - |
| 1777883327 | 8.89° C | 76% | 1011.9 hPa | 0 mm | - | 0 W/m² | - |
| 1777883024 | 8.89° C | 76% | 1011.8 hPa | 0 mm | - | 0 W/m² | - |
| 1777882721 | 8.89° C | 73% | 1011.8 hPa | 0 mm | - | 0 W/m² | - |
| 1777882417 | 8.33° C | 77% | 1011.9 hPa | 0 mm | - | 0 W/m² | - |
| 1777882113 | 8.33° C | 77% | 1012.1 hPa | 0 mm | - | 0 W/m² | - |
* Rain latest hour (hover to see other rain measurements)
** Current wind speed in m/s (hover to see current wind gust speed)